Time,TemperatureF,DewpointF,PressureIn,WindDirection,WindDirectionDegrees,WindSpeedMPH,WindSpeedGustMPH,Humidity,HourlyPrecipIn,Conditions,Clouds,dailyrainin,SoftwareType,DateUTC
2013-05-31 00:10:00,77.3,72.0,29.83,ESE,115,0.0,-999.0,83,-99.99,,,0.00,weatherlink.com 1.10,2013-05-31 05:10:00,
2013-05-31 00:25:00,77.1,72.0,29.83,SE,136,4.0,-999.0,83,-99.99,,,0.00,weatherlink.com 1.10,2013-05-31 05:25:00,
2013-05-31 00:40:00,76.8,72.0,29.83,ESE,122,4.0,-999.0,84,-99.99,,,0.00,weatherlink.com 1.10,2013-05-31 05:40:00,
2013-05-31 00:55:00,76.6,72.0,29.83,SE,129,0.0,-999.0,84,-99.99,,,0.00,weatherlink.com 1.10,2013-05-31 05:55:00,
2013-05-31 01:10:00,76.5,72.0,29.83,SE,145,0.0,-999.0,85,-99.99,,,0.00,weatherlink.com 1.10,2013-05-31 06:10:00,
2013-05-31 01:25:00,76.2,71.0,29.82,SE,130,0.0,-999.0,85,-99.99,,,0.00,weatherlink.com 1.10,2013-05-31 06:25:00,
2013-05-31 01:40:00,75.8,71.0,29.82,ESE,122,0.0,-999.0,85,-99.99,,,0.00,weatherlink.com 1.10,2013-05-31 06:40:00,
2013-05-31 01:55:00,75.6,71.0,29.82,ESE,121,0.0,-999.0,86,-99.99,,,0.00,weatherlink.com 1.10,2013-05-31 06:55:00,
2013-05-31 02:10:00,75.5,71.0,29.81,ESE,119,0.0,-999.0,86,-99.99,,,0.00,weatherlink.com 1.10,2013-05-31 07:10:00,
2013-05-31 02:25:00,75.3,71.0,29.81,SE,134,0.0,-999.0,87,-99.99,,,0.00,weatherlink.com 1.10,2013-05-31 07:25:00,
2013-05-31 02:40:00,75.3,71.0,29.81,SE,143,0.0,-999.0,87,-99.99,,,0.00,weatherlink.com 1.10,2013-05-31 07:40:00,
2013-05-31 02:55:00,75.3,71.0,29.80,SE,144,0.0,-999.0,87,-99.99,,,0.00,weatherlink.com 1.10,2013-05-31 07:55:00,
2013-05-31 03:10:00,75.3,71.0,29.80,SE,140,1.0,-999.0,87,-99.99,,,0.00,weatherlink.com 1.10,2013-05-31 08:10:00,
2013-05-31 03:25:00,75.3,71.0,29.80,East,101,0.0,-999.0,87,-99.99,,,0.00,weatherlink.com 1.10,2013-05-31 08:25:00,
2013-05-31 03:40:00,75.2,72.0,29.80,SE,138,0.0,-999.0,88,-99.99,,,0.00,weatherlink.com 1.10,2013-05-31 08:40:00,
2013-05-31 03:55:00,75.3,72.0,29.80,SE,141,3.0,-999.0,88,-99.99,,,0.00,weatherlink.com 1.10,2013-05-31 08:55:00,
2013-05-31 04:10:00,75.4,72.0,29.80,ESE,123,0.0,-999.0,88,-99.99,,,0.00,weatherlink.com 1.10,2013-05-31 09:10:00,
2013-05-31 04:25:00,75.4,72.0,29.81,SE,134,3.0,-999.0,88,-99.99,,,0.00,weatherlink.com 1.10,2013-05-31 09:25:00,
2013-05-31 04:40:00,75.3,72.0,29.81,SE,132,0.0,-999.0,88,-99.99,,,0.00,weatherlink.com 1.10,2013-05-31 09:40:00,
2013-05-31 04:55:00,75.4,72.0,29.81,SE,132,4.0,-999.0,88,-99.99,,,0.00,weatherlink.com 1.10,2013-05-31 09:55:00,
2013-05-31 05:10:00,75.4,72.0,29.81,SE,129,4.0,-999.0,88,-99.99,,,0.00,weatherlink.com 1.10,2013-05-31 10:10:00,
2013-05-31 05:25:00,75.5,72.0,29.82,SE,146,4.0,-999.0,88,-99.99,,,0.00,weatherlink.com 1.10,2013-05-31 10:25:00,
2013-05-31 05:40:00,75.7,72.0,29.82,SSE,157,0.0,-999.0,88,-99.99,,,0.00,weatherlink.com 1.10,2013-05-31 10:40:00,
2013-05-31 05:55:00,75.7,72.0,29.82,ESE,121,0.0,-999.0,88,-99.99,,,0.00,weatherlink.com 1.10,2013-05-31 10:55:00,
2013-05-31 06:10:00,75.7,72.0,29.83,ESE,118,0.0,-999.0,88,-99.99,,,0.00,weatherlink.com 1.10,2013-05-31 11:10:00,
2013-05-31 06:25:00,75.7,72.0,29.83,ESE,118,0.0,-999.0,88,-99.99,,,0.00,weatherlink.com 1.10,2013-05-31 11:25:00,
2013-05-31 06:40:00,75.9,72.0,29.84,SE,126,0.0,-999.0,88,-99.99,,,0.00,weatherlink.com 1.10,2013-05-31 11:40:00,
2013-05-31 06:55:00,75.9,72.0,29.83,SE,128,0.0,-999.0,88,-99.99,,,0.00,weatherlink.com 1.10,2013-05-31 11:55:00,
2013-05-31 07:10:00,75.9,72.0,29.84,ESE,121,0.0,-999.0,88,-99.99,,,0.00,weatherlink.com 1.10,2013-05-31 12:10:00,
2013-05-31 07:25:00,75.9,72.0,29.84,SE,136,4.0,-999.0,88,-99.99,,,0.00,weatherlink.com 1.10,2013-05-31 12:25:00,
2013-05-31 07:40:00,76.2,73.0,29.85,SE,125,4.0,-999.0,88,-99.99,,,0.00,weatherlink.com 1.10,2013-05-31 12:40:00,
2013-05-31 07:55:00,77.2,74.0,29.85,ESE,123,7.0,-999.0,88,-99.99,,,0.00,weatherlink.com 1.10,2013-05-31 12:55:00,
2013-05-31 08:10:00,78.2,74.0,29.85,SE,144,0.0,-999.0,87,-99.99,,,0.00,weatherlink.com 1.10,2013-05-31 13:10:00,
2013-05-31 08:25:00,78.5,74.0,29.86,ESE,123,4.0,-999.0,86,-99.99,,,0.00,weatherlink.com 1.10,2013-05-31 13:25:00,
2013-05-31 08:40:00,78.3,74.0,29.86,South,175,8.0,-999.0,85,-99.99,,,0.00,weatherlink.com 1.10,2013-05-31 13:40:00,
2013-05-31 08:55:00,79.1,74.0,29.85,SSE,153,6.0,-999.0,84,-99.99,,,0.00,weatherlink.com 1.10,2013-05-31 13:55:00,
2013-05-31 09:10:00,79.3,74.0,29.85,SSE,153,5.0,-999.0,84,-99.99,,,0.00,weatherlink.com 1.10,2013-05-31 14:10:00,
2013-05-31 09:25:00,80.1,75.0,29.85,ESE,122,5.0,-999.0,83,-99.99,,,0.00,weatherlink.com 1.10,2013-05-31 14:25:00,
2013-05-31 09:40:00,80.7,74.0,29.85,SE,142,10.0,-999.0,81,-99.99,,,0.00,weatherlink.com 1.10,2013-05-31 14:40:00,
2013-05-31 09:55:00,80.9,74.0,29.85,SE,146,12.0,-999.0,80,-99.99,,,0.00,weatherlink.com 1.10,2013-05-31 14:55:00,
2013-05-31 10:10:00,82.1,75.0,29.85,SSE,165,6.0,-999.0,79,-99.99,,,0.00,weatherlink.com 1.10,2013-05-31 15:10:00,
2013-05-31 10:25:00,82.6,75.0,29.85,SSE,159,6.0,-999.0,78,-99.99,,,0.00,weatherlink.com 1.10,2013-05-31 15:25:00,
2013-05-31 10:40:00,82.8,75.0,29.84,South,182,9.0,-999.0,77,-99.99,,,0.00,weatherlink.com 1.10,2013-05-31 15:40:00,
2013-05-31 10:56:00,83.8,76.0,29.84,SSE,163,11.0,-999.0,76,-99.99,,,0.00,weatherlink.com 1.10,2013-05-31 15:56:00,
2013-05-31 11:11:00,84.6,76.0,29.84,SSE,152,12.0,-999.0,74,-99.99,,,0.00,weatherlink.com 1.10,2013-05-31 16:11:00,
2013-05-31 11:26:00,85.1,76.0,29.84,SE,134,1.0,-999.0,73,-99.99,,,0.00,weatherlink.com 1.10,2013-05-31 16:26:00,
2013-05-31 11:41:00,86.3,76.0,29.84,ESE,123,4.0,-999.0,72,-99.99,,,0.00,weatherlink.com 1.10,2013-05-31 16:41:00,
2013-05-31 11:56:00,86.6,76.0,29.83,SE,133,12.0,-999.0,71,-99.99,,,0.00,weatherlink.com 1.10,2013-05-31 16:56:00,
2013-05-31 12:11:00,86.1,75.0,29.83,SSW,201,6.0,-999.0,69,-99.99,,,0.00,weatherlink.com 1.10,2013-05-31 17:11:00,
2013-05-31 12:26:00,87.1,76.0,29.83,South,178,18.0,-999.0,69,-99.99,,,0.00,weatherlink.com 1.10,2013-05-31 17:26:00,
2013-05-31 12:41:00,87.6,76.0,29.82,SE,128,11.0,-999.0,68,-99.99,,,0.00,weatherlink.com 1.10,2013-05-31 17:41:00,
2013-05-31 12:56:00,88.3,76.0,29.82,ESE,113,6.0,-999.0,66,-99.99,,,0.00,weatherlink.com 1.10,2013-05-31 17:56:00,
2013-05-31 13:11:00,88.4,76.0,29.82,South,185,7.0,-999.0,66,-99.99,,,0.00,weatherlink.com 1.10,2013-05-31 18:11:00,
2013-05-31 13:26:00,88.3,76.0,29.82,SE,138,4.0,-999.0,66,-99.99,,,0.00,weatherlink.com 1.10,2013-05-31 18:26:00,
2013-05-31 13:41:00,89.2,76.0,29.81,SSW,205,6.0,-999.0,65,-99.99,,,0.00,weatherlink.com 1.10,2013-05-31 18:41:00,
2013-05-31 13:56:00,89.0,75.0,29.81,South,178,4.0,-999.0,64,-99.99,,,0.00,weatherlink.com 1.10,2013-05-31 18:56:00,
2013-05-31 14:11:00,88.6,75.0,29.80,South,184,3.0,-999.0,65,-99.99,,,0.00,weatherlink.com 1.10,2013-05-31 19:11:00,
2013-05-31 14:26:00,88.6,75.0,29.79,SE,137,0.0,-999.0,65,-99.99,,,0.00,weatherlink.com 1.10,2013-05-31 19:26:00,
2013-05-31 14:41:00,89.9,75.0,29.79,SE,136,12.0,-999.0,62,-99.99,,,0.00,weatherlink.com 1.10,2013-05-31 19:41:00,
2013-05-31 14:56:00,89.3,76.0,29.79,SE,142,6.0,-999.0,64,-99.99,,,0.00,weatherlink.com 1.10,2013-05-31 19:56:00,
2013-05-31 15:11:00,88.9,74.0,29.79,SE,144,12.0,-999.0,62,-99.99,,,0.00,weatherlink.com 1.10,2013-05-31 20:11:00,
2013-05-31 15:26:00,90.5,75.0,29.78,SE,139,5.0,-999.0,61,-99.99,,,0.00,weatherlink.com 1.10,2013-05-31 20:26:00,
2013-05-31 15:41:00,90.6,75.0,29.77,SSE,162,4.0,-999.0,61,-99.99,,,0.00,weatherlink.com 1.10,2013-05-31 20:41:00,
2013-05-31 15:56:00,90.9,76.0,29.77,SE,133,3.0,-999.0,61,-99.99,,,0.00,weatherlink.com 1.10,2013-05-31 20:56:00,
2013-05-31 16:11:00,91.3,76.0,29.77,SE,142,1.0,-999.0,61,-99.99,,,0.00,weatherlink.com 1.10,2013-05-31 21:11:00,
2013-05-31 16:26:00,90.7,74.0,29.76,South,179,5.0,-999.0,59,-99.99,,,0.00,weatherlink.com 1.10,2013-05-31 21:26:00,
2013-05-31 16:41:00,90.5,75.0,29.76,South,191,0.0,-999.0,60,-99.99,,,0.00,weatherlink.com 1.10,2013-05-31 21:41:00,
2013-05-31 16:56:00,90.5,75.0,29.75,South,170,1.0,-999.0,60,-99.99,,,0.00,weatherlink.com 1.10,2013-05-31 21:56:00,
2013-05-31 17:11:00,90.8,74.0,29.75,SE,142,7.0,-999.0,59,-99.99,,,0.00,weatherlink.com 1.10,2013-05-31 22:11:00,
2013-05-31 17:26:00,91.2,75.0,29.75,ESE,117,6.0,-999.0,59,-99.99,,,0.00,weatherlink.com 1.10,2013-05-31 22:26:00,
2013-05-31 17:41:00,89.8,74.0,29.74,SE,134,0.0,-999.0,60,-99.99,,,0.00,weatherlink.com 1.10,2013-05-31 22:41:00,
2013-05-31 17:56:00,89.7,73.0,29.75,SE,128,10.0,-999.0,59,-99.99,,,0.00,weatherlink.com 1.10,2013-05-31 22:56:00,
2013-05-31 18:11:00,89.5,73.0,29.74,ESE,107,6.0,-999.0,58,-99.99,,,0.00,weatherlink.com 1.10,2013-05-31 23:11:00,
2013-05-31 18:26:00,89.6,73.0,29.74,SE,142,5.0,-999.0,59,-99.99,,,0.00,weatherlink.com 1.10,2013-05-31 23:26:00,
2013-05-31 18:41:00,89.4,73.0,29.74,SE,128,12.0,-999.0,58,-99.99,,,0.00,weatherlink.com 1.10,2013-05-31 23:41:00,
2013-05-31 18:56:00,89.0,73.0,29.73,SE,143,5.0,-999.0,59,-99.99,,,0.00,weatherlink.com 1.10,2013-05-31 23:56:00,
2013-05-31 19:11:00,88.5,72.0,29.74,SE,135,8.0,-999.0,59,-99.99,,,0.00,weatherlink.com 1.10,2013-06-01 00:11:00,
2013-05-31 19:26:00,87.9,73.0,29.74,SE,137,5.0,-999.0,61,-99.99,,,0.00,weatherlink.com 1.10,2013-06-01 00:26:00,
2013-05-31 19:41:00,87.1,72.0,29.74,SE,130,0.0,-999.0,62,-99.99,,,0.00,weatherlink.com 1.10,2013-06-01 00:41:00,
2013-05-31 19:56:00,86.3,73.0,29.74,SSW,194,2.0,-999.0,64,-99.99,,,0.00,weatherlink.com 1.10,2013-06-01 00:56:00,
2013-05-31 20:11:00,85.7,72.0,29.74,SE,125,1.0,-999.0,64,-99.99,,,0.00,weatherlink.com 1.10,2013-06-01 01:11:00,
2013-05-31 20:26:00,85.0,72.0,29.74,SE,127,5.0,-999.0,65,-99.99,,,0.00,weatherlink.com 1.10,2013-06-01 01:26:00,
2013-05-31 20:41:00,84.7,72.0,29.74,SSE,165,4.0,-999.0,65,-99.99,,,0.00,weatherlink.com 1.10,2013-06-01 01:41:00,
2013-05-31 20:56:00,84.1,72.0,29.74,SE,136,0.0,-999.0,66,-99.99,,,0.00,weatherlink.com 1.10,2013-06-01 01:56:00,
2013-05-31 21:11:00,83.6,72.0,29.74,ESE,118,0.0,-999.0,67,-99.99,,,0.00,weatherlink.com 1.10,2013-06-01 02:11:00,
2013-05-31 21:26:00,82.9,71.0,29.74,SE,138,5.0,-999.0,68,-99.99,,,0.00,weatherlink.com 1.10,2013-06-01 02:26:00,
2013-05-31 21:41:00,82.4,71.0,29.75,SSE,156,0.0,-999.0,69,-99.99,,,0.00,weatherlink.com 1.10,2013-06-01 02:41:00,
2013-05-31 21:56:00,82.0,71.0,29.75,ESE,112,3.0,-999.0,70,-99.99,,,0.00,weatherlink.com 1.10,2013-06-01 02:56:00,
2013-05-31 22:11:00,81.6,71.0,29.75,ESE,116,5.0,-999.0,71,-99.99,,,0.00,weatherlink.com 1.10,2013-06-01 03:11:00,
2013-05-31 22:26:00,81.1,71.0,29.76,SE,136,4.0,-999.0,72,-99.99,,,0.00,weatherlink.com 1.10,2013-06-01 03:26:00,
2013-05-31 22:41:00,80.8,71.0,29.77,ESE,119,0.0,-999.0,73,-99.99,,,0.00,weatherlink.com 1.10,2013-06-01 03:41:00,
2013-05-31 22:56:00,80.5,72.0,29.78,ESE,102,4.0,-999.0,74,-99.99,,,0.00,weatherlink.com 1.10,2013-06-01 03:56:00,
2013-05-31 23:11:00,80.2,72.0,29.79,SE,144,9.0,-999.0,75,-99.99,,,0.00,weatherlink.com 1.10,2013-06-01 04:11:00,
2013-05-31 23:26:00,79.9,71.0,29.79,ESE,113,4.0,-999.0,75,-99.99,,,0.00,weatherlink.com 1.10,2013-06-01 04:26:00,
2013-05-31 23:41:00,79.7,72.0,29.80,SE,133,6.0,-999.0,76,-99.99,,,0.00,weatherlink.com 1.10,2013-06-01 04:41:00,
2013-05-31 23:56:00,79.1,71.0,29.80,ESE,119,0.0,-999.0,76,-99.99,,,0.00,weatherlink.com 1.10,2013-06-01 04:56:00,